Location: Johnsonville
(42.9145°N, 73.5137°W)
Time: 23:43:15
(UTC+00:00)

Daily predictions for brighter satellites

Satellite Brightness Start Highest point End
(mag) Time Altitude Azimuth Time Altitude Azimuth Time Altitude Azimuth
Cosmos 2369 3.7 22:57:32 10° S 23:03:06 65° ESE 23:08:44 10° NNE
ATLAS 5 CENTAUR R/B 4.2 22:39:50 10° SW 23:03:28 83° NW 23:08:41 10° NE
USA 308 3.2 22:59:44 10° SSW 23:03:52 50° SE 23:08:00 10° ENE
FALCON 9 DEB 3.0 23:03:12 10° SW 23:06:20 64° SE 23:09:29 10° ENE
SeaSat 1 2.7 23:01:51 10° NE 23:06:38 47° ESE 23:11:22 10° S
Feng Yun 1-1 Rocket 4.4 23:02:18 10° SSE 23:08:06 83° ENE 23:14:02 10° NNW
Cosmos 1743 Rocket 3.5 23:05:06 10° S 23:09:25 74° E 23:13:50 10° NNE
Cosmos 1805 Rocket 4.0 23:06:29 10° SSE 23:10:31 38° E 23:14:35 10° NNE
USA 234 3.4 23:06:33 10° NE 23:13:03 63° SE 23:19:31 10° SW
H-2A R/B 3.6 23:09:22 10° N 23:13:11 38° WNW 23:16:58 10° SW
Cosmos 1862 3.5 23:09:49 10° S 23:13:50 79° W 23:17:53 10° N
Cosmos 2263 Rocket 3.2 23:09:16 10° N 23:13:53 26° NE 23:18:29 10° ESE
Cosmos 1607 4.5 23:07:36 10° SW 23:13:56 66° NW 23:20:26 10° NNE
Meteor 1-10 Rocket 4.2 23:08:19 10° N 23:14:06 78° E 23:19:44 10° SSE
Cosmos 1689 Rocket 2.9 23:12:40 10° NE 23:15:11 27° E 23:17:40 10° SSE
Cosmos 1271 Rocket 4.1 23:14:38 10° NNE 23:17:14 18° ENE 23:19:49 10° ESE
CZ-2D R/B 3.6 23:16:16 10° S 23:20:02 68° WSW 23:23:50 10° NNW
Cosmos 2228 Rocket 3.1 23:17:23 10° N 23:21:55 67° E 23:26:22 10° SSE
Cosmos 2227 Rocket 3.2 23:16:48 10° NW 23:22:16 51° WSW 23:27:42 10° S
Cosmos 1812 3.2 23:19:27 10° NNW 23:23:15 66° W 23:27:02 10° S
Cosmos 1850 Rocket 4.0 23:19:01 10° NNW 23:24:14 86° ENE 23:29:26 10° SSE
BREEZE-M DEB (TANK) 2.5 23:23:17 10° W 23:25:20 35° NNW 23:28:05 10° NE
Cosmos 2074 Rocket 4.4 23:19:50 10° SSE 23:25:33 38° E 23:31:15 10° NNE
SL-08 RB Rocket 4.5 23:21:47 10° SE 23:25:40 30° ENE 23:29:36 10° N
H-2A R/B 2.1 23:21:56 10° SSE 23:27:18 70° ENE 23:32:45 10° N
Cosmos 2084 3.4 23:26:12 10° SW 23:30:24 85° NW 23:34:43 10° NE
ARGOS 3.3 23:25:35 10° SE 23:30:49 52° ENE 23:36:05 10° N
FALCON 9 DEB 2.9 23:27:50 10° SW 23:31:01 84° NW 23:33:47 13° NE
Cosmos 1242 Rocket 3.5 23:28:07 10° NNW 23:31:35 52° W 23:35:04 10° S
Cosmos 1666 Rocket 4.3 23:28:41 10° SSE 23:32:29 30° E 23:36:17 10° NNE
Meteor 1-27 Rocket 3.6 23:28:16 10° N 23:33:48 70° E 23:39:17 10° SSE
Cosmos 2278 3.7 23:29:45 10° SSW 23:35:24 74° ESE 23:41:05 10° NNE
Cosmos 2184 Rocket 4.2 23:32:33 10° SSE 23:38:22 46° E 23:44:13 10° NNE
Aureole 1 Rocket 4.4 23:31:46 10° NNW 23:39:07 70° WSW 23:44:45 10° S
FALCON 9 DEB 3.4 23:36:04 10° WSW 23:39:11 58° NNW 23:41:41 15° NE
Cosmos 2297 Rocket 4.4 23:34:47 10° NW 23:39:33 28° WSW 23:44:18 10° SSW
COSMOS 2455 2.8 23:36:00 10° NNW 23:42:01 66° ENE 23:47:59 10° SE
Cosmos 292 Rocket 4.2 23:38:51 10° SSW 23:43:33 63° WNW 23:48:17 10° NNE
CZ-2C R/B 2.9 23:38:32 10° NNE 23:43:54 49° E 23:49:08 10° S
CSL-04 Debris 4.2 23:39:21 10° SSE 23:44:41 61° ENE 23:50:03 10° N
Helios 1A Rocket 2.9 23:40:55 10° SSE 23:44:55 59° ENE 23:48:56 10° N
CZ-2C R/B 4.4 23:39:47 10° S 23:45:23 48° W 23:50:54 10° NNW
Cosmos 1331 Rocket 4.0 23:40:06 10° SSW 23:45:23 82° ESE 23:50:41 10° NNE
YAOGAN 1 2.7 23:42:51 10° S 23:47:10 79° WSW 23:51:32 10° NNW
SL-4 R/B 2.9 23:44:16 10° W 23:47:34 34° NNW 23:50:04 15° NE
COSMO-SKYMED 1 4.4 23:45:04 10° N 23:48:59 34° WNW 23:52:54 10° SW
Cosmos 220 Rocket 4.0 23:45:33 10° SSW 23:49:44 81° WNW 23:54:00 10° NNE
Okean-O 2.8 23:45:21 10° S 23:49:47 78° WSW 23:54:14 10° NNW
CZ-4B R/B 3.9 23:48:05 10° NNW 23:50:30 22° WNW 23:52:55 10° WSW
Cosmos 1844 Rocket 4.5 23:48:46 10° NNE 23:51:22 13° NE 23:52:07 13° NE
CSL-04 Rocket 3.7 23:46:18 10° SSE 23:51:47 66° ENE 23:57:17 10° N
Gbstr 26 Del rocket 3.2 23:48:57 10° SW 23:53:17 89° SE 23:57:10 18° ENE
Lacrosse 5 rocket 1.7 23:50:01 10° NW 23:54:24 68° SW 23:58:02 13° SE
Cosmos 1437 2.4 23:52:07 10° N 23:54:58 56° E 23:56:40 21° SSE
